SAS21M EDDH-EKCH

Flight info

Callsign SAS21M
Flight time N/A
Altitude 21000
Route LUGEG3G/33 LUGEG P605 GESKA/N0381F200 Z711 MONAK
Aircraft CRJ9/M-SDFGIRWXYE3/EB1

Departure

Time 2026-05-05 15:49
Airport Hamburg Helmut Schmidt Airport (EDDH)

Arrival

Time N/A
Airport Copenhagen Kastrup Airport (EKCH)
Time Latitude Longitude Altitude Speed Heading
2026-05-05 15:30 53.62692 9.98711 44 ft 0 kts 62°
2026-05-05 15:44 53.62692 9.98713 45 ft 0 kts 68°
2026-05-05 15:44 53.62693 9.98719 45 ft 1 kts 90°
2026-05-05 15:45 53.62690 9.98728 45 ft 1 kts 137°
2026-05-05 15:45 53.62679 9.98729 42 ft 3 kts 200°
2026-05-05 15:45 53.62668 9.98694 45 ft 1 kts 278°
2026-05-05 15:45 53.62675 9.98679 43 ft 5 kts 325°
2026-05-05 15:46 53.62723 9.98646 45 ft 7 kts 10°
2026-05-05 15:46 53.62761 9.98698 45 ft 9 kts 48°
2026-05-05 15:46 53.62812 9.98800 45 ft 14 kts 50°
2026-05-05 15:46 53.62885 9.98947 45 ft 17 kts 49°
2026-05-05 15:47 53.62936 9.99050 44 ft 12 kts 50°
2026-05-05 15:47 53.62971 9.99120 42 ft 10 kts 51°
2026-05-05 15:47 53.63001 9.99181 45 ft 0 kts 51°
2026-05-05 15:48 53.63008 9.99196 45 ft 5 kts 50°
2026-05-05 15:48 53.63040 9.99251 45 ft 10 kts 38°
2026-05-05 15:48 53.63116 9.99305 45 ft 14 kts 15°
2026-05-05 15:48 53.63225 9.99349 43 ft 22 kts 12°
2026-05-05 15:49 53.63398 9.99286 44 ft 42 kts 333°
2026-05-05 15:49 53.63911 9.98846 48 ft 122 kts 334°
2026-05-05 15:49 53.64838 9.98043 305 ft 163 kts 335°
2026-05-05 15:49 53.65875 9.97208 1199 ft 166 kts 338°
2026-05-05 15:50 53.66988 9.96338 1940 ft 191 kts 338°
2026-05-05 15:50 53.68288 9.95409 2601 ft 211 kts 340°
2026-05-05 15:50 53.69673 9.94468 3221 ft 219 kts 340°
2026-05-05 15:50 53.71106 9.93443 3781 ft 228 kts 338°
2026-05-05 15:51 53.72591 9.92374 4344 ft 235 kts 340°
2026-05-05 15:51 53.74177 9.91982 4869 ft 230 kts 12°
2026-05-05 15:51 53.75581 9.93269 5392 ft 236 kts 36°
2026-05-05 15:51 53.76912 9.94975 5927 ft 243 kts 34°
2026-05-05 15:52 53.78317 9.96649 6446 ft 251 kts 33°
2026-05-05 15:52 53.79770 9.98351 6931 ft 258 kts 33°
2026-05-05 15:52 53.81239 10.00155 7437 ft 264 kts 37°
2026-05-05 15:52 53.82385 10.02607 7919 ft 273 kts 69°
2026-05-05 15:53 53.82827 10.05754 8406 ft 282 kts 78°
2026-05-05 15:53 53.83351 10.08911 8585 ft 291 kts 69°
2026-05-05 15:53 53.84182 10.12057 8666 ft 295 kts 62°
2026-05-05 15:53 53.85162 10.15134 8696 ft 299 kts 60°
2026-05-05 15:54 53.86178 10.18168 8760 ft 302 kts 60°
2026-05-05 15:54 53.87214 10.21309 9549 ft 302 kts 60°
2026-05-05 15:54 53.88141 10.24136 10318 ft 309 kts 60°
2026-05-05 15:54 53.89225 10.27493 11198 ft 315 kts 60°
2026-05-05 15:55 53.90270 10.30782 12045 ft 320 kts 61°
2026-05-05 15:55 53.91326 10.34127 12890 ft 324 kts 61°
2026-05-05 15:55 53.92400 10.37544 13684 ft 333 kts 61°
2026-05-05 15:55 53.93521 10.41103 14131 ft 349 kts 61°
2026-05-05 15:56 53.94679 10.44769 14799 ft 356 kts 61°
2026-05-05 15:56 53.95858 10.48508 15538 ft 361 kts 60°
2026-05-05 15:56 53.97051 10.52298 16251 ft 367 kts 60°
2026-05-05 15:56 53.98259 10.56144 16974 ft 372 kts 60°
2026-05-05 15:57 53.99484 10.60050 17666 ft 377 kts 60°
2026-05-05 15:57 54.00728 10.64013 18310 ft 383 kts 60°
2026-05-05 15:57 54.01985 10.68022 18939 ft 386 kts 60°
2026-05-05 15:57 54.03254 10.72086 19515 ft 392 kts 60°
2026-05-05 15:58 54.04525 10.76162 20093 ft 395 kts 60°
2026-05-05 15:58 54.05818 10.80306 20548 ft 403 kts 60°
2026-05-05 15:58 54.07158 10.84612 20754 ft 418 kts 60°
2026-05-05 15:58 54.08543 10.89076 20846 ft 435 kts 60°
2026-05-05 15:59 54.09971 10.93709 20890 ft 451 kts 60°
2026-05-05 15:59 54.11550 10.98437 20902 ft 465 kts 53°
2026-05-05 15:59 54.13584 11.02811 20919 ft 477 kts 46°
2026-05-05 15:59 54.15860 11.06918 20924 ft 470 kts 43°
2026-05-05 16:00 54.18122 11.10876 20912 ft 462 kts 43°
2026-05-05 16:00 54.20335 11.14812 20905 ft 455 kts 44°
2026-05-05 16:00 54.22463 11.18758 20898 ft 449 kts 45°
2026-05-05 16:00 54.24536 11.22687 20910 ft 443 kts 45°
2026-05-05 16:01 54.26591 11.26600 20903 ft 439 kts 44°
2026-05-05 16:01 54.28627 11.30459 20899 ft 435 kts 44°
2026-05-05 16:01 54.30642 11.34291 20897 ft 432 kts 44°
2026-05-05 16:01 54.32654 11.38084 20898 ft 428 kts 44°
2026-05-05 16:02 54.34650 11.41850 20899 ft 426 kts 44°
2026-05-05 16:02 54.36636 11.45604 20900 ft 424 kts 44°
2026-05-05 16:02 54.38629 11.49353 20902 ft 429 kts 44°
2026-05-05 16:02 54.40650 11.53168 20910 ft 435 kts 44°
2026-05-05 16:03 54.42697 11.57038 20915 ft 441 kts 44°
2026-05-05 16:03 54.44768 11.60960 20917 ft 446 kts 44°
2026-05-05 16:03 54.46863 11.64932 20927 ft 451 kts 44°
2026-05-05 16:03 54.48978 11.68950 20920 ft 455 kts 45°
2026-05-05 16:04 54.51114 11.73001 20920 ft 459 kts 44°
2026-05-05 16:04 54.53265 11.77091 20919 ft 463 kts 45°
2026-05-05 16:04 54.55431 11.81222 20917 ft 465 kts 45°
2026-05-05 16:04 54.57596 11.85357 20915 ft 465 kts 45°
2026-05-05 16:05 54.59761 11.89493 20915 ft 464 kts 45°
2026-05-05 16:05 54.62002 11.93478 20905 ft 461 kts 37°
2026-05-05 16:05 54.64547 11.96785 20913 ft 457 kts 30°
2026-05-05 16:05 54.67227 11.99732 20940 ft 455 kts 28°
2026-05-05 16:06 54.69917 12.02599 20927 ft 455 kts 28°
2026-05-05 16:06 54.72571 12.05565 20528 ft 453 kts 30°
2026-05-05 16:06 54.75147 12.08581 20193 ft 440 kts 31°
2026-05-05 16:06 54.77655 12.11500 20030 ft 429 kts 30°
2026-05-05 16:07 54.80124 12.14361 19958 ft 426 kts 30°
2026-05-05 16:07 54.82579 12.17217 19931 ft 422 kts 30°
2026-05-05 16:07 54.85005 12.20045 19909 ft 419 kts 30°
2026-05-05 16:07 54.87398 12.22838 19889 ft 409 kts 30°
2026-05-05 16:08 54.89763 12.25599 19350 ft 411 kts 30°
2026-05-05 16:08 54.92139 12.28388 18884 ft 413 kts 31°
2026-05-05 16:08 54.94522 12.31188 18398 ft 414 kts 31°
2026-05-05 16:08 54.96896 12.33998 17574 ft 412 kts 31°
2026-05-05 16:09 54.99241 12.36746 16562 ft 413 kts 30°
2026-05-05 16:09 55.01626 12.39542 15516 ft 413 kts 31°
2026-05-05 16:09 55.04007 12.42343 14437 ft 413 kts 31°
2026-05-05 16:09 55.06390 12.45161 13783 ft 415 kts 31°
2026-05-05 16:10 55.08785 12.47977 13175 ft 415 kts 31°
2026-05-05 16:10 55.11158 12.50756 12866 ft 404 kts 31°
2026-05-05 16:10 55.13447 12.53443 12627 ft 390 kts 31°
2026-05-05 16:10 55.15673 12.56056 12195 ft 384 kts 31°
2026-05-05 16:11 55.17884 12.58647 11568 ft 382 kts 31°
2026-05-05 16:11 55.24160 12.65987 11288 ft 341 kts 28°
2026-05-05 16:12 55.26181 12.68000 11269 ft 329 kts 25°
2026-05-05 16:12 55.30119 12.71641 11227 ft 312 kts 24°
2026-05-05 16:13 55.35930 12.73719 10158 ft 281 kts 327°
2026-05-05 16:13 55.37515 12.71776 9778 ft 276 kts 316°
2026-05-05 16:13 55.38850 12.69388 9346 ft 272 kts 308°
2026-05-05 16:14 55.41160 12.64148 8477 ft 270 kts 304°
2026-05-05 16:14 55.42065 12.58120 7532 ft 268 kts 252°
2026-05-05 16:15 55.40303 12.52376 6614 ft 269 kts 231°
2026-05-05 16:15 55.37615 12.48304 6409 ft 245 kts 220°
2026-05-05 16:16 55.35354 12.45147 5563 ft 239 kts 221°
2026-05-05 16:16 55.33589 12.40579 4773 ft 223 kts 262°
2026-05-05 16:17 55.34236 12.35655 4530 ft 205 kts 309°
2026-05-05 16:17 55.35173 12.33876 4329 ft 196 kts 322°
2026-05-05 16:18 55.37387 12.31169 3965 ft 197 kts 333°
2026-05-05 16:18 55.38595 12.30301 4030 ft 181 kts 348°
2026-05-05 16:18 55.41222 12.30755 3846 ft 211 kts 24°
2026-05-05 16:19 55.42437 12.32354 3915 ft 222 kts 45°
2026-05-05 16:19 55.43377 12.34571 3912 ft 227 kts 53°
2026-05-05 16:19 55.45100 12.38837 3847 ft 204 kts 49°
2026-05-05 16:20 55.47308 12.41900 3099 ft 209 kts 29°
2026-05-05 16:20 55.49676 12.44820 2287 ft 210 kts 41°
2026-05-05 16:21 55.51636 12.48535 1943 ft 190 kts 45°
2026-05-05 16:22 55.54231 12.52605 1385 ft 154 kts 39°
2026-05-05 16:22 55.55761 12.54952 920 ft 136 kts 38°
2026-05-05 16:23 55.57334 12.57441 601 ft 146 kts 39°
2026-05-05 16:23 55.58097 12.58619 371 ft 150 kts 38°
2026-05-05 16:23 55.59580 12.60912 19 ft 118 kts 36°
2026-05-05 16:24 55.60100 12.61700 18 ft 80 kts 40°
2026-05-05 16:24 55.60449 12.62253 18 ft 55 kts 40°